User: anonymous   Login
Location: Unspecified
(0.0000°N, 0.0000°E)
Time: 07:16:34
(UTC+01:00)
Language:

Cosmos 1892 Rocket - Orbit

View from above orbital plane
View from above orbital plane
View from above satellite
View from above satellite

Ground track
Ground track

The orbit data is extracted from the following two-line orbital elements,

1 18422U 87088B   14302.68883721  .00000470  00000-0  55439-4 0  3941
2 18422 082.5129 357.6452 0019540 010.1703 140.0890 14.82486493459334
Epoch (UTC): 29 October 2014 16:31:55
Eccentricity: 0.0019540
inclination: 82.5129°
perigee height: 608 km
apogee height: 635 km
right ascension of ascending node: 357.6452°
argument of perigee: 10.1703°
revolutions per day: 14.82486493
mean anomaly at epoch: 140.0890°
orbit number at epoch: 45933

The dashed part of the orbit path shows where the satellite is in the earth's shadow,  

DLR